EW4210 Weather Reports


Display with metric or nautical units.
time (UTC)temp
F
wind
direction
speed
MPH
gust
MPH
rain 1hr
in
rain 24hr
in
rain mn
in
humidity
%
barometer
mb
20260831134525 81 61 0.0 3.0 0.00 0.00 0.00 72 1017.2
20260831133100 78 138 0.0 2.0 0.00 0.00 0.00 79 1017.1
20260831131537 74 142 0.0 0.0 0.00 0.00 0.00 87 1017.0
20260831130020 72 142 0.0 0.0 0.00 0.00 0.00 90 1016.8
20260831124508 70 142 0.0 2.0 0.00 0.00 0.00 90 1016.7
20260831123045 69 142 0.0 0.0 0.00 0.00 0.00 91 1016.6
20260831121522 69 142 0.0 0.0 0.00 0.00 0.00 91 1016.6
20260831120054 69 142 0.0 0.0 0.00 0.00 0.00 90 1016.3
20260831114533 69 331 0.0 0.0 0.00 0.00 0.00 90 1016.1
20260831113016 69 140 0.0 0.0 0.00 0.00 0.00 90 1016.0
20260831111600 69 140 0.0 0.0 0.00 0.00 0.00 90 1016.0
20260831110040 69 140 0.0 0.0 0.00 0.00 0.00 88 1015.9
20260831104529 70 140 0.0 0.0 0.00 0.00 0.00 87 1015.7
20260831103107 70 140 0.0 0.0 0.00 0.00 0.00 86 1015.6
20260831101539 70 140 0.0 0.0 0.00 0.00 0.00 85 1015.5
20260831100034 71 140 0.0 0.0 0.00 0.00 0.00 85 1015.5
20260831094505 72 140 0.0 0.0 0.00 0.00 0.00 84 1015.4
20260831093045 72 140 0.0 0.0 0.00 0.00 0.00 82 1015.2
20260831091521 72 140 0.0 0.0 0.00 0.00 0.00 82 1015.2
20260831090108 72 140 0.0 0.0 0.00 0.00 0.00 83 1015.3
20260831090003 72 140 0.0 0.0 0.00 0.00 0.00 82 1015.2
20260831084543 72 140 0.0 0.0 0.00 0.00 0.00 81 1015.2
20260831083024 72 140 0.0 0.0 0.00 0.00 0.00 80 1015.0
20260831081557 73 140 0.0 0.0 0.00 0.00 0.00 79 1015.1
20260831080053 73 140 0.0 0.0 0.00 0.00 0.00 79 1015.0
20260831074515 74 140 0.0 0.0 0.00 0.00 0.00 78 1015.0
20260831073056 74 140 0.0 0.0 0.00 0.00 0.00 77 1015.1
20260831071537 75 140 0.0 0.0 0.00 0.00 0.00 75 1015.0
20260831070025 75 140 0.0 0.0 0.00 0.00 0.00 75 1015.2
20260831064506 75 140 0.0 0.0 0.00 0.00 0.00 74 1015.0
20260831063047 75 140 0.0 0.0 0.00 0.00 0.00 74 1015.2
20260831061530 75 140 0.0 0.0 0.00 0.00 0.00 73 1015.2
20260831060011 75 140 0.0 0.0 0.00 0.00 0.00 73 1015.2
20260831054553 76 140 0.0 0.0 0.00 0.00 0.00 71 1015.2
20260831053038 76 140 0.0 0.0 0.00 0.00 0.00 72 1015.3
20260831051521 77 140 0.0 0.0 0.00 0.00 0.00 72 1015.2
20260831050059 77 140 0.0 0.0 0.00 0.00 0.00 71 1015.2
20260831044539 77 140 0.0 0.0 0.00 0.00 0.00 67 1015.1
20260831043023 78 140 0.0 0.0 0.00 0.00 0.00 67 1015.1
20260831041512 80 140 0.0 2.0 0.00 0.00 0.00 66 1015.2
20260831040055 80 85 1.0 3.0 0.00 0.00 0.00 61 1015.2
20260831034535 81 121 0.0 3.0 0.00 0.00 0.00 60 1015.2
20260831033021 82 66 0.0 2.0 0.00 0.00 0.00 61 1015.0
20260831031608 82 89 1.0 3.0 0.00 0.00 0.00 59 1015.0
20260831030037 82 69 0.0 4.0 0.00 0.00 0.00 58 1014.8
20260831024518 82 85 1.0 3.0 0.00 0.00 0.00 61 1014.8
20260831023006 81 97 1.0 2.0 0.00 0.00 0.00 60 1014.6
20260831021553 80 95 1.0 2.0 0.00 0.00 0.00 66 1014.5
20260831020025 81 122 0.0 3.0 0.00 0.00 0.00 66 1014.4
20260831014509 80 122 1.0 2.0 0.00 0.00 0.00 65 1014.1
20260831013049 80 104 0.0 1.0 0.00 0.00 0.00 67 1014.0
20260831011530 81 104 0.0 2.0 0.00 0.00 0.00 63 1013.9
20260831010007 82 104 0.0 2.0 0.00 0.00 0.00 61 1013.8
20260831004554 84 104 0.0 1.0 0.00 0.00 0.00 58 1013.8
20260831003049 85 104 0.0 2.0 0.00 0.00 0.00 53 1013.8
20260831001522 87 120 0.0 3.0 0.00 0.00 0.00 51 1013.7
20260831000011 88 109 0.0 3.0 0.00 0.00 0.00 49 1013.7
20260830234553 88 108 1.0 2.0 0.00 0.00 0.00 48 1014.0
20260830233032 89 83 0.0 4.0 0.00 0.00 0.00 47 1013.9
20260830231515 90 69 2.0 6.0 0.00 0.00 0.00 43 1014.0
20260830230103 90 72 2.0 6.0 0.00 0.00 0.00 43 1013.9
20260830230007 90 92 1.0 6.0 0.00 0.00 0.00 43 1014.0
20260830224551 91 120 3.0 9.0 0.00 0.00 0.00 44 1013.8
20260830223026 91 102 0.0 8.0 0.00 0.00 0.00 44 1013.8
20260830221523 92 123 1.0 8.0 0.00 0.00 0.00 43 1013.9
20260830220052 92 126 2.0 7.0 0.00 0.00 0.00 44 1013.9
20260830214537 92 71 3.0 8.0 0.00 0.00 0.00 44 1014.0
20260830213023 92 105 3.0 8.0 0.00 0.00 0.00 45 1014.0
20260830211504 93 69 2.0 9.0 0.00 0.00 0.00 45 1014.2
20260830210045 93 193 3.0 7.0 0.00 0.00 0.00 42 1014.2
20260830204532 93 199 1.0 9.0 0.00 0.00 0.00 42 1014.5
20260830203004 94 32 1.0 7.0 0.00 0.00 0.00 39 1014.6
20260830201552 94 70 0.0 3.0 0.00 0.00 0.00 41 1014.8
20260830200030 93 64 2.0 6.0 0.00 0.00 0.00 39 1015.0
20260830194609 93 188 3.0 7.0 0.00 0.00 0.00 43 1015.0
20260830193043 93 128 0.0 8.0 0.00 0.00 0.00 41 1015.1
20260830191532 94 172 1.0 4.0 0.00 0.00 0.00 38 1015.4
20260830190008 93 182 2.0 7.0 0.00 0.00 0.00 42 1015.5
20260830184548 93 92 1.0 3.0 0.00 0.00 0.00 45 1015.5
20260830183028 92 101 1.0 4.0 0.00 0.00 0.00 43 1015.8
20260830181510 92 42 1.0 4.0 0.00 0.00 0.00 45 1016.0
20260830180056 92 86 1.0 6.0 0.00 0.00 0.00 45 1016.1
20260830174530 91 246 2.0 8.0 0.00 0.00 0.00 47 1016.3
20260830173016 91 145 1.0 4.0 0.00 0.00 0.00 50 1016.5
20260830171549 91 171 2.0 9.0 0.00 0.00 0.00 51 1016.8
20260830170035 91 25 1.0 4.0 0.00 0.00 0.00 49 1016.7
20260830164533 90 74 1.0 8.0 0.00 0.00 0.00 52 1016.9
20260830163102 89 199 1.0 4.0 0.00 0.00 0.00 52 1016.9
20260830161525 88 101 0.0 4.0 0.00 0.00 0.00 55 1017.0
20260830160007 87 96 1.0 4.0 0.00 0.00 0.00 58 1017.1
20260830154546 86 263 1.0 3.0 0.00 0.00 0.00 55 1017.1
20260830153023 86 105 0.0 2.0 0.00 0.00 0.00 59 1017.1
20260830151505 84 161 0.0 3.0 0.00 0.00 0.00 58 1017.2
20260830150042 83 198 0.0 3.0 0.00 0.00 0.00 61 1017.0
20260830144521 82 100 0.0 3.0 0.00 0.00 0.00 61 1017.0
20260830143053 80 213 0.0 2.0 0.00 0.00 0.00 68 1017.1
20260830141534 78 34 0.0 2.0 0.00 0.00 0.00 70 1017.2
20260830140014 76 112 1.0 3.0 0.00 0.00 0.00 72 1017.3